Location: Demmingen
(48.6757°N, 10.4375°E)
Time: 21:50:01
(UTC+00:00)

SL-16 R/B - Pass Details

Date: 14 August 2024
Orbit: 842 x 845 km, 71.0° (Epoch: 10 September)

Event Time Altitude Azimuth Distance (km) Brightness Sun altitude
Exits shadow 22:03:09 39° 92° (E) 1,239 2.8 -24.9°
Drops below altitude 10° 22:07:49 10° 40° (NE) 2,474 5.0 -25.2°
Sets 22:10:23 0° 33° (NNE) 3,414 5.9 -25.3°
